125  
ASUS41 KCLE 192112  
RWRCLE  
OHIO REGIONAL WEATHER ROUNDUP  
NATIONAL WEATHER SERVICE WILMINGTON, OH  
400 PM EST SUN NOV 19 2017  
 
NOTE: "FAIR" INDICATES FEW OR NO CLOUDS BELOW 12,000 FEET WITH NO  
SIGNIFICANT WEATHER AND/OR S TO VISIBILITY
.  
 
OHZ001>008-015>018-024>027-034-035-043-044-192200-  
NORTHWEST OHIO  
 
CITY SKY/WX TMP DP RH WIND PRES REMARKS
 
DEFIANCE CLOUDY 33 24 69 W9 29.98R WCI 25  
FINDLAY CLOUDY 36 23 59 W21G30 29.95R  
TOLEDO EXPRESS CLOUDY 35 25 66 W16G24 29.94R WCI 25  
TOLEDO EXEC CLOUDY 36 22 56 W24G33 29.95R  
LIMA N/A N/A N/A N/A W20 29.97  

 
 
OHZ009>014-019>023-028>033-038-089-192200-  
NORTHEAST OHIO  
 
CITY SKY/WX TMP DP RH WIND PRES REMARKS
 
CLE-HOPKINS SNOW 34 30 85 W21G32 29.91R VSB 1/2 WCI 22  
CLE-LAKEFRONT CLOUDY 38 30 73 W30G37 29.86R  
CUY CO. ARPT SNOWSHWR 34 32 93 W21G35 29.85R WCI 22  
LORAIN-ELYRIA CLOUDY 35 22 58 W21G28 29.90R WCI 24  
ASHTABULA LGT SNOW 35 29 78 NW9 29.83R WCI 28  
AKRON-CANTON CLOUDY 37 26 64 W16G22 29.86R  
WOOSTER FLURRIES 35 26 69 W20G25 29.89R WCI 24  
MANSFIELD FLURRIES 35 25 66 W14G31 29.90R WCI 26  
YOUNGSTOWN FLURRIES 36 27 69 W14G24 29.82R  

 
 
OHZ042-051>053-060>062-070>072-077>081-192200-  
SOUTHWEST OHIO  
 
CITY SKY/WX TMP DP RH WIND PRES REMARKS
 
CINC-COVINGTON PTSUNNY 38 27 64 W15G24 30.05R  
CINC-LUNKEN PTSUNNY 40 26 57 W14G22 30.07R  
HAMILTON CLOUDY 38 26 62 W15G22 30.07R  
DAYTON CLOUDY 32 24 72 W21G30 30.03R WCI 20  
WRIGHT-PAT AFB CLOUDY 35 22 60 W16G22 30.02R WCI 25  
DAYTON GENERAL CLOUDY 35 25 66 W14G22 30.02R WCI 26  
WILMINGTON CLOUDY 35 26 69 W23 30.01R WCI 23  

 
 
OHZ036-037-039>041-045>050-054>059-063>069-073>076-082>088-192200-  
CENTRAL AND SOUTHEAST OHIO  
 
CITY SKY/WX TMP DP RH WIND PRES REMARKS
 
COLUMBUS CLOUDY 37 27 67 NW25 29.97R  
OSU AIRPORT CLOUDY 36 26 67 W22G30 29.97R  
BOLTON FIELD CLOUDY 36 27 69 NW17G24 29.99R  
RICKENBACK AFB CLOUDY 37 28 70 W22 29.98R  
NEWARK CLOUDY 38 26 62 W18 29.95R  
MARION CLOUDY 36 26 67 W13G23 29.95R  
LANCASTER CLOUDY 37 29 72 W10 29.97R  
ZANESVILLE CLOUDY 40 28 62 W18G26 29.92R  
NEW PHILLY FLURRIES 35 32 88 NW9 29.91R WCI 28  

 
 
 
CLICK HERE TO GO TO PREVIOUS BULLETINS.

The Nexlab OH Page
The Nexlab PA Page Main Text Page